sat.trackr.live / text

‹ back to catalog

STARLINK-35492

NORAD 65926 · 2025-225S

PAYLOAD ACTIVE UNKNOWN

§ Identity

Operator
Country
US
Launch date
2025-10-08
Launch site
AFWTR
Launch vehicle
Mass (kg)
RCS (m²)

Purposes: comms

External: N2YO · Heavens-Above · Gunter

§ Orbital elements

Epoch: 2026-09-20T20:11:54.189888Z

Period
93.85 min
Inclination
53.1597°
Eccentricity
0.0001021
Mean motion
15.34406336 rev/d
Perigee alt
462.0 km
Apogee alt
463.4 km
Semi-major
6,840.8 km
B*
3.8016e-4
RAAN
335.8928°
Arg perigee
68.1300°
Mean anomaly
291.9811°
Rev number
5,433

§ Raw data

STARLINK-354921 65926U 25225S   26263.84159942  .00012492  00000+0  38016-3 0  99932 65926  53.1597 335.8928 0001021  68.1300 291.9811 15.34406336 54331

JSON: /api/v1/satellites/65926 · /tle

For live sub-satellite position, see the globe view (requires WebGL).

§ Visibility from observer

Set your observer location to see the next 7 days of passes ≥ 10°. The values pass through the URL so the page stays shareable.

No JS? Fill the form by hand. The geolocation button needs JavaScript.